Showing default

KSM1-A, 46912

Orbit data source: Space-Track

KSM1-A, 46912 is a payload satellite owned by Kleos Space (LU) in LEO that was launched on Sat, 07 Nov 2020 UTC via a PSLV-DL launch vehicle from the Sirharikota (SRI). Payload-class satellites include a variety of spacecraft equipped with specific instruments for various scientific and technological missions. These include communications satellites like Starlink; space stations such as the ISS; scientific satellites like the Hubble; Earth observation satellites from companies like Planet Labs, Umbra, and HawkEye 360; GPS; miniature CubeSats for education and research; and military/defense satellites.

Loading next visibility...
Identifier
46912, 2020-081H
Orbit
LEO
Country
Flag of UnknownUnknown / LUXE
Related business
Manufacturer
GOMSpace
Mission
Operational Commercial Sigint
Bus & Motor
CUBESAT 6U, Unknown motor
Mass
~10 kg wet, ~10 kg dry
Launch date (UTC)
2020-11-07 (5 years ago)
Launch vehicle
PSLV-DL
Launch site
Sirharikota (SRI)
Object type
Payload
Rocket body
Debris
Shape & HBR
Box, 1.0 m
Radar Cross Section
0.080 m², Medium (>0.1 m² and < 1m²)

Expand to show TLE details & history
Last TLE update: 9 hours ago

TLE from 9 hours ago
0 KSM1-A
1 46912U 20081H   25288.92213286  .00011600  00000-0  51884-3 0  9998
2 46912  36.8951 122.0726 0002657  33.3479 326.7435 15.20730089271909
Epoch: 2025-10-15T22:07Z
TLE epoch observation values (Epoch: 2025-10-15T22:07:52.279Z)
Latitude
-0.00002°
Longitude
125.41548°
Altitude
501.217 km
Speed
7.617 km/s
True Right ascension
08h 08m 17s
True Declination
0° 00' 00"
Sunlit
Object was in daylight at epoch
Visualization orbit readout
Latitude
Unknown
Longitude
Unknown
Altitude
Unknown
Speed
Unknown
Apparent Right ascension
Unknown
Apparent Declination
Unknown
Sunlit
N/A
Visualization observer readout
Local Sidereal Time
02:03:40
Azimuth
Unknown
Elevation
Unknown
Doppler factor
Unknown
Orbital elements
Apogee altitude
508.411 km
Perigee altitude
504.753 km
Semi-major axis
6,884.719 km
Eccentricity
0.00027
Inclination
36.8951°
RAAN
122.0726°
Arg. of periapsis
33.3479°
True anomaly
326.7268°
Mean anomaly
326.7435°
Eccentric anomaly
326.73515°
Mean motion
3.79939 °/min
Orbital period
94.75 mins
BSTAR
0.00051884
Loading maneuver chart data...
Computing Atmospheric mass density...
Loading historical data...
Loading historical data...
Loading historical data...
Loading historical data...
Loading historical data...
Loading historical data...
Loading historical data...

Documentation

Showing up to 5 results
|